Change the Weather History Date:

Wednesday, May 14, 2014

  Actual Average (KGLD) Record (KGLD)
Temperature  
Mean Temperature 48 °F 59 °F  
Max Temperature 62 °F 72 °F 95 °F (1915)
Min Temperature 33 °F 45 °F 27 °F (1953)
Degree Days  
Heating Degree Days 18 7  
Month to date heating degree days 127  
Since 1 July heating degree days 5782  
Cooling Degree Days 0 1  
Month to date cooling degree days 12  
Year to date cooling degree days 16  
Moisture  
Dew Point 36 °F    
Average Humidity 71    
Maximum Humidity 100    
Minimum Humidity 31    
Precipitation  
Precipitation 0.00 in 0.09 in 1.27 in (1928)
Month to date precipitation 1.13  
Year to date precipitation 4.66  
Snow  
Snow 0.00 in 0.00 in - ()
Month to date snowfall 0.4  
Since 1 July snowfall 35.4  
Snow Depth -    
Sea Level Pressure  
Sea Level Pressure 30.32 in    
Wind  
Wind Speed 10 mph (NW)    
Max Wind Speed 22 mph    
Max Gust Speed 40 mph    
Visibility 10 miles    
Events Rain    
T = Trace of Precipitation, MM = Missing Value Source: NWS Daily Summary

Daily Weather History Graph

Daily Weather History Graph

Search for Another Location

Airport or City:

Trip Planner

Search our weather history database for the weather conditions in past years. The results will help you decide how hot, cold, wet, or windy it might be!

Date:

Astronomy

May. 14, 2014 Rise Set
Actual Time 6:31 AM CDT 8:50 PM CDT
Civil Twilight 6:01 AM CDT 9:20 PM CDT
Nautical Twilight 5:23 AM CDT 9:58 PM CDT
Astronomical Twilight 4:42 AM CDT 10:39 PM CDT
Moon 8:58 PM CDT (5/14) 6:31 AM CDT (5/14)
Length of Visible Light 15h 19m
Length of Day
14h 19m
Full, 100% of the Moon is Illuminated
May 14
Full
May 14
Full
May 21
Last Quarter
May 28
New
Jun 5
First Quarter

Hourly Weather History & Observations

Time (CDT) Temp. Windchill Dew Point Humidity Pressure Visibility Wind Dir Wind Speed Gust Speed Precip Events Conditions
12:10 AM 35.6 °F 29.9 °F 33.8 °F 93% 30.39 in 10.0 mi WNW 6.9 mph - N/A   Clear
12:30 AM 35.6 °F 29.9 °F 35.6 °F 100% 30.39 in 10.0 mi NW 6.9 mph - N/A   Scattered Clouds
12:50 AM 35.6 °F 28.6 °F 35.6 °F 100% 30.39 in 10.0 mi WNW 9.2 mph - N/A   Scattered Clouds
1:10 AM 35.6 °F 28.6 °F 35.6 °F 100% 30.39 in 10.0 mi WNW 9.2 mph - N/A   Scattered Clouds
1:30 AM 37.4 °F 30.3 °F 35.6 °F 93% 30.39 in 10.0 mi WNW 10.4 mph - N/A   Scattered Clouds
1:50 AM 35.6 °F 27.5 °F 35.6 °F 100% 30.38 in 10.0 mi WNW 11.5 mph - N/A   Clear
2:10 AM 35.6 °F 28.0 °F 35.6 °F 100% 30.38 in 10.0 mi WNW 10.4 mph - N/A   Clear
2:30 AM 35.6 °F 28.0 °F 35.6 °F 100% 30.38 in 10.0 mi WNW 10.4 mph - N/A   Clear
2:50 AM 35.6 °F 27.5 °F 33.8 °F 93% 30.37 in 10.0 mi WNW 11.5 mph - N/A   Clear
3:10 AM 35.6 °F 28.0 °F 35.6 °F 100% 30.37 in 10.0 mi WNW 10.4 mph - N/A   Clear
3:30 AM 35.6 °F 28.0 °F 33.8 °F 93% 30.37 in 10.0 mi WNW 10.4 mph - N/A   Clear
3:50 AM 35.6 °F 28.0 °F 35.6 °F 100% 30.37 in 10.0 mi WNW 10.4 mph - N/A   Clear
4:10 AM 35.6 °F 28.0 °F 35.6 °F 100% 30.37 in 10.0 mi WNW 10.4 mph - N/A   Clear
4:30 AM 35.6 °F 28.0 °F 35.6 °F 100% 30.37 in 10.0 mi WNW 10.4 mph - N/A   Clear
4:50 AM 33.8 °F 25.8 °F 33.8 °F 100% 30.36 in 10.0 mi WNW 10.4 mph - N/A   Clear
5:10 AM 33.8 °F 25.3 °F 33.8 °F 100% 30.36 in 10.0 mi WNW 11.5 mph - N/A   Clear
5:30 AM 33.8 °F 25.3 °F 33.8 °F 100% 30.36 in 10.0 mi WNW 11.5 mph - N/A   Clear
5:50 AM 35.6 °F 28.6 °F 33.8 °F 93% 30.36 in 10.0 mi WNW 9.2 mph - N/A   Clear
6:10 AM 33.8 °F 25.8 °F 33.8 °F 100% 30.36 in 10.0 mi WNW 10.4 mph - N/A   Clear
6:30 AM 33.8 °F 26.4 °F 33.8 °F 100% 30.35 in 10.0 mi WNW 9.2 mph - N/A   Clear
6:50 AM 33.8 °F 25.8 °F 33.8 °F 100% 30.36 in 10.0 mi West 10.4 mph - N/A   Clear
7:15 AM 33.8 °F 26.4 °F 33.8 °F 100% 30.36 in 10.0 mi West 9.2 mph - N/A   Clear
7:30 AM 35.6 °F 28.6 °F 33.8 °F 93% 30.36 in 10.0 mi West 9.2 mph - N/A   Clear
7:50 AM 37.4 °F 30.3 °F 35.6 °F 93% 30.36 in 10.0 mi WNW 10.4 mph - N/A   Clear
8:10 AM 41.0 °F 34.7 °F 35.6 °F 81% 30.36 in 10.0 mi WNW 10.4 mph - N/A   Clear
8:30 AM 42.8 °F 36.2 °F 37.4 °F 81% 30.36 in 10.0 mi WNW 12.7 mph - N/A   Clear
8:50 AM 44.6 °F 38.8 °F 37.4 °F 76% 30.36 in 10.0 mi NW 11.5 mph - N/A   Clear
9:10 AM 46.4 °F 41.1 °F 37.4 °F 71% 30.36 in 10.0 mi WNW 11.5 mph - N/A   Clear
9:30 AM 50.0 °F - 39.2 °F 66% 30.36 in 10.0 mi NW 9.2 mph - N/A   Clear
9:50 AM 51.8 °F - 37.4 °F 58% 30.36 in 10.0 mi West 6.9 mph - N/A   Clear
10:10 AM 53.6 °F - 37.4 °F 54% 30.36 in 10.0 mi NW 8.1 mph - N/A   Clear
10:30 AM 55.4 °F - 37.4 °F 51% 30.36 in 10.0 mi WNW 9.2 mph - N/A   Clear
10:50 AM 57.2 °F - 33.8 °F 41% 30.36 in 10.0 mi NW 9.2 mph - N/A   Clear
11:10 AM 59.0 °F - 33.8 °F 39% 30.35 in 10.0 mi Calm Calm - N/A   Clear
11:50 AM 60.8 °F - 30.2 °F 31% 30.34 in 10.0 mi NNW 13.8 mph 18.4 mph N/A   Clear
12:30 PM 60.8 °F - 30.2 °F 31% 30.32 in 10.0 mi NNW 8.1 mph - N/A   Mostly Cloudy
12:50 PM 60.8 °F - 32.0 °F 34% 30.31 in 10.0 mi NW 11.5 mph 18.4 mph N/A   Mostly Cloudy
1:10 PM 62.6 °F - 32.0 °F 32% 30.30 in 10.0 mi NW 5.8 mph 17.3 mph N/A   Scattered Clouds
1:30 PM 53.6 °F - 35.6 °F 51% 30.31 in 5.0 mi North 12.7 mph 40.3 mph N/A Rain Light Rain
1:50 PM 60.8 °F - 33.8 °F 36% 30.29 in 10.0 mi West 13.8 mph - N/A   Mostly Cloudy
2:10 PM 60.8 °F - 33.8 °F 36% 30.28 in 10.0 mi West 9.2 mph 17.3 mph N/A   Mostly Cloudy
2:35 PM 44.6 °F 39.7 °F 35.6 °F 71% 30.29 in 5.0 mi NNW 9.2 mph 36.8 mph N/A Rain Light Rain
2:50 PM 50.0 °F - 41.0 °F 71% 30.29 in 10.0 mi NE 5.8 mph 11.5 mph N/A   Mostly Cloudy
3:10 PM 55.4 °F - 42.8 °F 63% 30.27 in 10.0 mi ESE 3.5 mph - N/A   Scattered Clouds
3:30 PM 55.4 °F - 41.0 °F 58% 30.27 in 10.0 mi Calm Calm - N/A Rain Light Rain
3:50 PM 57.2 °F - 37.4 °F 48% 30.25 in 10.0 mi South 4.6 mph - N/A   Scattered Clouds
4:10 PM 62.6 °F - 41.0 °F 45% 30.23 in 10.0 mi NW 15.0 mph 20.7 mph N/A   Scattered Clouds
4:30 PM 59.0 °F - 41.0 °F 51% 30.22 in 10.0 mi WNW 20.7 mph 24.2 mph N/A   Mostly Cloudy
5:10 PM 62.6 °F - 33.8 °F 34% 30.21 in 10.0 mi NNW 16.1 mph 24.2 mph N/A   Mostly Cloudy
5:30 PM 62.6 °F - 32.0 °F 32% 30.21 in 10.0 mi North 17.3 mph 24.2 mph N/A   Scattered Clouds
5:50 PM 57.2 °F - 35.6 °F 44% 30.23 in 7.0 mi North 12.7 mph 31.1 mph N/A Rain Heavy Rain
6:10 PM 59.0 °F - 35.6 °F 42% 30.22 in 10.0 mi North 18.4 mph - N/A   Mostly Cloudy
6:30 PM 59.0 °F - 35.6 °F 42% 30.22 in 10.0 mi North 13.8 mph 33.4 mph N/A Rain Light Rain
6:50 PM 57.2 °F - 37.4 °F 48% 30.23 in 10.0 mi NNE 21.9 mph 28.8 mph N/A   Scattered Clouds
7:10 PM 57.2 °F - 37.4 °F 48% 30.23 in 10.0 mi NE 12.7 mph - N/A   Clear
7:30 PM 55.4 °F - 37.4 °F 51% 30.24 in 10.0 mi North 15.0 mph - N/A   Scattered Clouds
7:50 PM 55.4 °F - 37.4 °F 51% 30.25 in 10.0 mi North 10.4 mph - N/A   Mostly Cloudy
8:10 PM 53.6 °F - 37.4 °F 54% 30.25 in 10.0 mi North 9.2 mph - N/A   Overcast
8:30 PM 53.6 °F - 37.4 °F 54% 30.26 in 10.0 mi North 8.1 mph - N/A   Overcast
8:50 PM 51.8 °F - 41.0 °F 67% 30.28 in 10.0 mi WNW 18.4 mph 26.5 mph N/A   Overcast
9:10 PM 50.0 °F - 41.0 °F 71% 30.27 in 10.0 mi West 16.1 mph - N/A Rain Rain
9:30 PM 51.8 °F - 39.2 °F 62% 30.25 in 10.0 mi Calm Calm - N/A   Overcast
9:50 PM 50.0 °F - 41.0 °F 71% 30.26 in 10.0 mi WNW 5.8 mph - N/A   Overcast
10:10 PM 48.2 °F - 41.0 °F 76% 30.27 in 10.0 mi NW 6.9 mph - N/A   Overcast
10:30 PM 48.2 °F - 41.0 °F 76% 30.27 in 10.0 mi WNW 8.1 mph - N/A   Overcast
11:10 PM 44.6 °F 39.7 °F 41.0 °F 87% 30.27 in 10.0 mi WNW 9.2 mph - N/A   Overcast
11:30 PM 46.4 °F 42.9 °F 41.0 °F 81% 30.28 in 10.0 mi NW 6.9 mph - N/A   Overcast
11:50 PM 44.6 °F 40.2 °F 41.0 °F 87% 30.27 in 10.0 mi NW 8.1 mph - N/A   Mostly Cloudy